Weather in Papulovo

Russia / Kirov Oblast     60°35′22″N   48°01′36″E
temp.,
°C
wind,
m/s
gust,
m/s
humid.,
%
clouds,
%
prec.,
mm/h
press.,
hPa
HPBL,
m
17 may, mon
mon1700:00+14sw310870 0.0 1010258
03:00+13sw310935 0.0 1011314
06:00+15wsw498428 0.0 1012557
09:00+17w5772100 0.1 10131054
12:00+17wnw477580 0.4 10151153
15:00+18nw475585 0.4 10171622
18:00+18nnw36620 0.0 10171008
21:00+12nne239077 0.0 101961
18 may, tue
tue1800:00+10ne229453 0.0 102019
03:00+9ese119623 0.0 102111
06:00+13ese128288 0.0 1022257
09:00+17e236146 0.0 1021741
12:00+21ese2348100 0.0 10211150
15:00+22se33438 0.0 10211411
18:00+20se235985 0.0 102082
21:00+15ese227548 0.0 102035
19 may, wed
wed1900:00+13sse2885100 0.0 1020141
03:00+12se288646 0.0 1021156
06:00+16sse387381 0.0 1021263
09:00+21sse465412 0.0 1020824
12:00+24s46416 0.0 10201455
15:00+25s453826 0.0 10191685
18:00+23sse375016 0.0 1018313
21:00+16sse3106986 0.0 1019181
20 may, thu
thu2000:00+14sse311785 0.0 1018211
03:00+12sse28835 0.0 1019149
06:00+17sse3106816 0.0 1019309
09:00+22s47515 0.0 1018732
12:00+26s563867 0.0 10171604
15:00+26s473699 0.0 10161859
18:00+23sse41047100 0.0 1015668
21:00+17sse3106878 0.0 1016197
21 may, fri
fri2100:00+14sse313750 0.0 1015317
03:00+13sse311815 0.0 1015275
06:00+16sse4116884 0.0 1014414
09:00+21s611540 0.0 10131382
12:00+22s7135381 0.4 10122202
15:00+21s6125216 0.6 10112131
18:00+20s61355100 0.0 10101903
21:00+15sw4108182 1.0 1011589